Weather History for Gulkana, AK

Change the Weather History Date:

Sunday, May 11, 2014

  Actual Average Record
Temperature  
Mean Temperature 49 °F -  
Max Temperature 66 °F 53 °F 71 °F (2005)
Min Temperature 32 °F 31 °F 13 °F (1964)
Degree Days  
Heating Degree Days 16    
Moisture  
Dew Point 23 °F    
Average Humidity 34    
Maximum Humidity 72    
Minimum Humidity 11    
Precipitation  
Precipitation 0.00 in - - ()
Sea Level Pressure  
Sea Level Pressure 30.24 in    
Wind  
Wind Speed 6 mph (NNW)    
Max Wind Speed 12 mph    
Max Gust Speed 17 mph    
Visibility 10 miles    
Events      
Averages and records for this station are not official NWS values.
T = Trace of Precipitation, MM = Missing Value Source: NWS Daily Summary

Daily Weather History Graph

Daily Weather History Graph

Search for Another Location

Airport:

Trip Planner

Search our weather history database for the weather conditions in past years. The results will help you decide how hot, cold, wet, or windy it might be!

Date:

Astronomy

May. 11, 2014 Rise Set
Actual Time 4:57 AM AKDT 10:21 PM AKDT
Civil Twilight 3:46 AM AKDT 11:33 PM AKDT
Nautical Twilight 2:10 AM AKDT 1:05 AM AKDT
Astronomical Twilight Sun does not rise Sun does not rise
Moon 6:28 PM AKDT (5/11) 4:15 AM AKDT (5/11)
Length of Visible Light 19h 47m
Length of Day
17h 23m
Waxing Gibbous, 90% of the Moon is Illuminated
May 11
Waxing Gibbous
May 14
Full
May 21
Last Quarter
May 28
New
Jun 5
First Quarter

Hourly Weather History & Observations

Time (AKDT) Temp. Windchill Dew Point Humidity Pressure Visibility Wind Dir Wind Speed Gust Speed Precip Events Conditions
12:53 AM 44.1 °F 39.5 °F 24.1 °F 45% 30.23 in 10.0 mi NNW 8.1 mph - N/A   Clear
1:53 AM 42.1 °F 36.6 °F 24.1 °F 49% 30.24 in 10.0 mi NNW 9.2 mph - N/A   Clear
2:53 AM 39.9 °F 35.1 °F 24.1 °F 53% 30.25 in 10.0 mi NNW 6.9 mph - N/A   Clear
3:53 AM 37.9 °F 35.5 °F 23.0 °F 55% 30.26 in 10.0 mi NNW 3.5 mph - N/A   Clear
4:53 AM 36.0 °F 32.1 °F 23.0 °F 59% 30.27 in 10.0 mi NW 4.6 mph - N/A   Clear
5:53 AM 33.1 °F - 25.0 °F 72% 30.28 in 10.0 mi Calm Calm - N/A   Clear
6:53 AM 37.9 °F - 26.1 °F 62% 30.28 in 10.0 mi Calm Calm - N/A   Clear
7:53 AM 43.0 °F - 26.1 °F 51% 30.28 in 9.0 mi Calm Calm - N/A   Clear
8:53 AM 46.0 °F 43.9 °F 26.1 °F 46% 30.28 in 10.0 mi East 4.6 mph - N/A   Clear
9:53 AM 50.0 °F - 25.0 °F 38% 30.27 in 10.0 mi SE 3.5 mph - N/A   Clear
10:53 AM 55.0 °F - 25.0 °F 31% 30.26 in 10.0 mi Calm Calm - N/A   Clear
11:53 AM 60.1 °F - 21.9 °F 23% 30.25 in 10.0 mi ENE 10.4 mph - N/A   Clear
12:53 PM 62.1 °F - 21.0 °F 21% 30.25 in 10.0 mi North 11.5 mph 17.3 mph N/A   Clear
1:53 PM 63.0 °F - 19.9 °F 19% 30.23 in 10.0 mi Variable 4.6 mph - N/A   Clear
2:53 PM 63.0 °F - 19.9 °F 19% 30.22 in 10.0 mi NW 9.2 mph 17.3 mph N/A   Clear
3:53 PM 64.9 °F - 23.0 °F 20% 30.22 in 10.0 mi WNW 8.1 mph - N/A   Partly Cloudy
4:53 PM 62.1 °F - 23.0 °F 22% 30.22 in 10.0 mi NNW 8.1 mph - N/A   Clear
5:53 PM 66.0 °F - 21.9 °F 19% 30.20 in 10.0 mi North 10.4 mph - N/A   Clear
6:53 PM 64.9 °F - 21.0 °F 19% 30.19 in 10.0 mi NNW 8.1 mph - N/A   Clear
7:53 PM 64.0 °F - 21.0 °F 19% 30.19 in 10.0 mi North 9.2 mph - N/A   Clear
8:53 PM 61.0 °F - 23.0 °F 23% 30.19 in 10.0 mi NNW 11.5 mph - N/A   Clear
9:53 PM 57.0 °F - 24.1 °F 28% 30.21 in 10.0 mi NNW 9.2 mph - N/A   Clear
10:53 PM 52.0 °F - 25.0 °F 35% 30.22 in 10.0 mi NW 8.1 mph - N/A   Clear
11:53 PM 48.9 °F - 25.0 °F 39% 30.22 in 10.0 mi NNW 8.1 mph - N/A   Clear